Location: Medlow Airstrip Trail, Medlow Bath NSW 2780, Australia
(33.6682°S, 150.3233°E)
Time: 23:49:59
(UTC+11:00)

S-56A Canister/Altair - All Passes

Search period start: 23 October 2019 00:00
Search period end: 02 November 2019 00:00
Orbit: 633 x 2499 km, 38.9° (Epoch: 22 October)

Date Brightness Start Highest point End Pass type
(mag) Time Alt. Az. Time Alt. Az. Time Alt. Az.
23 Oct - 10:19:37 10° NNE 10:27:15 16° NE 10:34:41 10° E daylight
23 Oct - 12:18:25 10° NNW 12:32:33 48° NE 12:44:35 10° ESE daylight
23 Oct - 14:23:57 10° WNW 14:38:50 90° SW 14:49:44 10° ESE daylight
23 Oct - 16:32:28 10° W 16:45:27 66° S 16:54:04 10° ESE daylight
23 Oct - 18:40:48 10° WSW 18:51:21 82° SSE 18:58:04 10° ENE daylight
23 Oct - 20:48:08 10° WSW 20:55:10 34° NW 21:00:12 10° NNE visible
24 Oct - 09:48:28 10° NNE 09:54:00 13° NE 09:59:30 10° ENE daylight
24 Oct - 11:45:18 10° NNW 11:59:04 44° NE 12:11:21 10° ESE daylight
24 Oct - 13:50:11 10° WNW 14:05:20 86° NNE 14:16:54 10° ESE daylight
24 Oct - 15:58:28 10° W 16:12:07 68° S 16:21:25 10° ESE daylight
24 Oct - 18:07:01 10° WSW 18:18:21 77° SSE 18:25:36 10° ENE daylight
24 Oct - 20:14:30 10° WSW 20:22:36 42° NW 20:28:09 10° NNE visible
25 Oct - 11:12:20 10° NNW 11:25:36 40° NE 11:37:59 10° ESE daylight
25 Oct - 13:16:31 10° WNW 13:31:47 81° NNE 13:43:59 10° ESE daylight
25 Oct - 15:24:27 10° W 15:38:43 70° S 15:48:42 10° ESE daylight
25 Oct - 17:33:10 10° WSW 17:45:16 74° SSE 17:53:04 10° E daylight
25 Oct - 19:40:50 10° WSW 19:49:57 51° NW 19:55:59 10° NE visible
26 Oct - 10:39:31 10° NNW 10:52:10 36° NE 11:04:28 10° ESE daylight
26 Oct - 12:42:58 10° NW 12:58:12 76° NNE 13:10:59 10° ESE daylight
26 Oct - 14:50:29 10° W 15:05:14 72° S 15:15:56 10° ESE daylight
26 Oct - 16:59:15 10° WSW 17:12:05 72° S 17:20:29 10° E daylight
26 Oct - 19:07:07 10° WSW 19:17:13 60° NW 19:23:46 10° NE daylight
26 Oct - 21:17:11 10° WNW 21:19:45 12° NW 21:22:03 10° NNW visible
27 Oct - 10:06:53 10° N 10:18:47 31° NE 10:30:47 10° E daylight
27 Oct - 12:09:32 10° NW 12:24:35 71° NNE 12:37:54 10° ESE daylight
27 Oct - 14:16:34 10° W 14:31:40 75° SSW 14:43:05 10° ESE daylight
27 Oct - 16:25:19 10° WSW 16:38:48 71° S 16:47:50 10° E daylight
27 Oct - 18:33:21 10° WSW 18:44:22 69° NNW 18:51:27 10° NE daylight
27 Oct - 20:42:23 10° W 20:47:15 17° NW 20:51:13 10° NNW visible
28 Oct - 09:34:28 10° N 09:45:27 27° NE 09:56:52 10° E daylight
28 Oct - 11:36:14 10° NW 11:50:58 66° NNE 12:04:42 10° ESE daylight
28 Oct - 13:42:43 10° WNW 13:58:03 78° SSW 14:10:10 10° ESE daylight
28 Oct - 15:51:20 10° WSW 16:05:26 70° S 16:15:09 10° E daylight
28 Oct - 17:59:32 10° WSW 18:11:25 76° NNW 18:19:04 10° NE daylight
28 Oct - 20:08:08 10° W 20:14:43 22° NW 20:19:45 10° N visible
29 Oct - 09:02:15 10° N 09:12:10 23° NE 09:22:44 10° E daylight
29 Oct - 11:03:04 10° NW 11:17:22 61° NE 11:31:23 10° ESE daylight
29 Oct - 13:08:57 10° WNW 13:24:22 81° SSW 13:37:10 10° ESE daylight
29 Oct - 15:17:22 10° W 15:31:57 70° S 15:42:22 10° E daylight
29 Oct - 17:25:41 10° WSW 17:38:23 83° NNW 17:46:37 10° ENE daylight
29 Oct - 19:34:03 10° W 19:42:08 28° NW 19:48:00 10° N visible
30 Oct - 08:30:22 10° NNE 08:38:58 20° NE 08:48:15 10° E daylight
30 Oct - 10:30:01 10° NW 10:43:49 56° NE 10:57:57 10° ESE daylight
30 Oct - 12:35:18 10° WNW 12:50:39 84° SSW 13:04:05 10° ESE daylight
30 Oct - 14:43:26 10° W 14:58:23 70° S 15:09:30 10° E daylight
30 Oct - 16:51:48 10° WSW 17:05:13 89° NNW 17:14:05 10° ENE daylight
30 Oct - 19:00:02 10° WSW 19:09:27 35° NW 19:16:03 10° NNE daylight
31 Oct - 07:58:55 10° NNE 08:05:50 16° NE 08:13:19 10° E daylight
31 Oct - 09:57:08 10° NNW 10:10:18 51° NE 10:24:25 10° ESE daylight
31 Oct - 12:01:46 10° WNW 12:16:54 88° SSW 12:30:54 10° ESE daylight
31 Oct - 14:09:31 10° W 14:24:45 70° S 14:36:35 10° E daylight
31 Oct - 16:17:54 10° WSW 16:31:57 86° SSE 16:41:28 10° ENE daylight
31 Oct - 18:26:04 10° WSW 18:36:43 42° NW 18:43:59 10° NNE daylight
01 Nov - 07:28:23 10° NE 07:32:47 12° ENE 07:37:26 10° ENE daylight
01 Nov - 09:24:23 10° NNW 09:36:50 46° NE 09:50:45 10° ESE daylight
01 Nov - 11:28:20 10° WNW 11:43:10 88° NNE 11:57:38 10° ESE daylight
01 Nov - 13:35:41 10° W 13:51:02 71° S 14:03:33 10° E daylight
01 Nov - 15:44:00 10° WSW 15:58:34 82° SSE 16:08:46 10° ENE daylight
01 Nov - 17:52:07 10° WSW 18:03:50 49° NW 18:11:47 10° NNE daylight
